Telfer, Australia

5:03 AM AWST on November 24, 2017 (GMT +0800)
Telfer

Weather History for YTEF - March, 2013

Change the Weather History Date:

Tuesday, March 5, 2013

  Actual Average Record
Temperature  
Mean Temperature 92 °F -  
Max Temperature 105 °F - - ()
Min Temperature 79 °F - - ()
Cooling Degree Days 27    
Growing Degree Days 42 (Base 50)    
Moisture  
Dew Point 59 °F    
Average Humidity 31    
Maximum Humidity 58    
Minimum Humidity 10    
Precipitation  
Precipitation 0.00 in - - ()
Sea Level Pressure  
Sea Level Pressure 29.67 in    
Wind  
Wind Speed 6 mph ()    
Max Wind Speed 13 mph    
Max Gust Speed 24 mph    
T = Trace of Precipitation, MM = Missing Value Source: Averaged Metar Reports

Daily Weather History Graph

Daily Weather History Graph

Search for Another Location

Airport or City:

Trip Planner

Search our weather history database for the weather conditions in past years. The results will help you decide how hot, cold, wet, or windy it might be!

Date:

Astronomy

Mar. 05, 2013 Rise Set
Actual Time 5:49 AM AWST 6:15 PM AWST
Civil Twilight 5:26 AM AWST 6:38 PM AWST
Nautical Twilight 5:00 AM AWST 7:04 PM AWST
Astronomical Twilight 4:34 AM AWST 7:30 PM AWST
Moon No Moon Rise 12:42 PM AWST (3/5)
Length of Visible Light 13h 11m
Length of Day
12h 26m
Waning Gibbous, 47% of the Moon is Illuminated
Mar 5
Waning Gibbous
Mar 12
New
Mar 20
First Quarter
Mar 27
Full
Apr 3
Last Quarter

Hourly Weather History & Observations

Time (AWST) Temp. Heat Index Dew Point Humidity Pressure Visibility Wind Dir Wind Speed Gust Speed Precip Events Conditions
12:00 AM 82 °F - 66 °F 50% 29.64 in - SE 5.8 mph - -  
12:00 AM 82.4 °F 84.6 °F 66.2 °F 58% 29.68 in - SE 5.8 mph - N/A   Unknown
1:00 AM 84.2 °F 85.0 °F 62.6 °F 48% 29.68 in - Calm Calm - N/A   Unknown
2:00 AM 82 °F - 65 °F 47% 29.62 in - NW 11.5 mph - -  
2:00 AM 82.4 °F 83.9 °F 64.4 °F 54% 29.68 in - NW 11.5 mph - N/A   Unknown
3:00 AM 85 °F - 61 °F 34% 29.62 in - WSW 8.1 mph - -  
3:00 AM 84.2 °F 84.4 °F 60.8 °F 45% 29.68 in - WSW 8.1 mph - N/A   Unknown
4:00 AM 84.2 °F 84.4 °F 60.8 °F 45% 29.68 in - South 8.1 mph - N/A   Unknown
5:00 AM 80 °F - 63 °F 46% 29.66 in - Calm Calm - -  
5:00 AM 80.6 °F 81.8 °F 62.6 °F 54% 29.71 in - Calm Calm - N/A   Unknown
6:00 AM 82 °F - 60 °F 37% 29.67 in - SSW 6.9 mph - -  
6:00 AM 82.4 °F 82.9 °F 60.8 °F 48% 29.74 in - SSW 6.9 mph - N/A   Unknown
7:00 AM 86.0 °F 84.9 °F 57.2 °F 37% 29.74 in - South 4.6 mph - N/A   Unknown
8:00 AM 90 °F - 57 °F 23% 29.69 in - SE 8.1 mph - -  
8:00 AM 89.6 °F 88.1 °F 57.2 °F 33% 29.74 in - SE 8.1 mph - N/A   Unknown
9:00 AM 94 °F - 58 °F 20% 29.70 in - East 8.1 mph - -  
9:00 AM 93.2 °F 91.9 °F 57.2 °F 30% 29.74 in - East 8.1 mph - N/A   Unknown
10:00 AM 96.8 °F 96.2 °F 59.0 °F 28% 29.74 in - East 11.5 mph - N/A   Unknown
11:00 AM 100 °F - 60 °F 18% 29.67 in - East 9.2 mph - -  
11:00 AM 100.4 °F 101.3 °F 60.8 °F 27% 29.74 in - East 9.2 mph - N/A   Unknown
12:00 PM 103 °F - 55 °F 13% 29.65 in - SE 12.7 mph - -  
12:00 PM 102.2 °F 100.9 °F 55.4 °F 21% 29.71 in - SE 12.7 mph 24.2 mph N/A   Unknown
1:00 PM 102.2 °F 100.4 °F 53.6 °F 20% 29.68 in - SE 9.2 mph - N/A   Unknown
2:00 PM 106 °F - 55 °F 11% 29.60 in - ESE 8.1 mph - -  
2:00 PM 105.8 °F 104.9 °F 55.4 °F 19% 29.65 in - ESE 8.1 mph - N/A   Unknown
3:00 PM 103 °F - 51 °F 10% 29.59 in - South 5.8 mph - -  
3:00 PM 102.2 °F - 51.8 °F 18% 29.65 in - South 5.8 mph - N/A   Unknown
4:00 PM 104.0 °F 102.9 °F 55.4 °F 20% 29.65 in - South 11.5 mph - N/A   Unknown
5:00 PM 103 °F - 53 °F 11% 29.60 in - South 6.9 mph - -  
5:00 PM 104.0 °F 102.3 °F 53.6 °F 19% 29.65 in - South 6.9 mph - N/A   Unknown
6:00 PM 100 °F - 55 °F 14% 29.60 in - SSE 4.6 mph - -  
6:00 PM 100.4 °F 98.8 °F 55.4 °F 22% 29.65 in - SSE 4.6 mph - N/A   Unknown
7:00 PM 95.0 °F 95.2 °F 60.8 °F 32% 29.68 in - ESE 3.5 mph - N/A   Unknown
8:00 PM 91 °F - 62 °F 28% 29.65 in - SSE 5.8 mph - -  
8:00 PM 91.4 °F 92.1 °F 62.6 °F 38% 29.71 in - SSE 5.8 mph - N/A   Unknown
9:00 PM 92 °F - 60 °F 25% 29.66 in - SSE 5.8 mph - -  
9:00 PM 91.4 °F 91.4 °F 60.8 °F 36% 29.71 in - SSE 5.8 mph - N/A   Unknown
10:00 PM 91.4 °F 90.7 °F 59.0 °F 34% 29.71 in - SSE 8.1 mph - N/A   Unknown
11:00 PM 90 °F - 57 °F 23% 29.65 in - South 6.9 mph - -  
11:00 PM 89.6 °F 88.1 °F 57.2 °F 33% 29.71 in - South 6.9 mph - N/A   Unknown